• Em Portugal
  • Lista de países
  • Para 7 dias
  • Temperatura da água
  • Mapas de satélite
  • Mapa do tempo
  • Widgets de tempo
  • user-avatar
    Iniciar Sessão

    Previsão horária em Mazatenango

    Hoje, 19 Agosto, Sábado

    Tempo Temperatura Precipitação Vento Pressão Humidade
    00:00 +24°C° 0 mm 1 m/s 727 mmHg 74%
    01:00 +24°C° 0 mm 1 m/s 727 mmHg 72%
    02:00 +24°C° 0 mm 1 m/s 726 mmHg 69%
    03:00 +24°C° 0 mm 1 m/s 726 mmHg 67%
    04:00 +23°C° 0 mm 1 m/s 726 mmHg 65%
    05:00 +23°C° 0 mm 1 m/s 726 mmHg 63%
    06:00 +23°C° 0 mm 1 m/s 726 mmHg 60%
    07:00 +26°C° 0 mm 1 m/s 727 mmHg 56%
    08:00 +29°C° 0 mm 1 m/s 727 mmHg 52%
    09:00 +31°C° 0 mm 1 m/s 727 mmHg 47%
    10:00 +32°C° 0 mm 2 m/s 727 mmHg 47%
    11:00 +34°C° 0 mm 2 m/s 727 mmHg 48%
    12:00 +35°C° 0 mm 3 m/s 727 mmHg 48%
    13:00 +34°C° 0,1 mm 3 m/s 726 mmHg 53%
    14:00 +34°C° 0,1 mm 3 m/s 725 mmHg 58%
    15:00 +33°C° 0,1 mm 3 m/s 725 mmHg 63%
    16:00 +31°C° 0,5 mm 3 m/s 725 mmHg 70%
    17:00 +30°C° 0,5 mm 2 m/s 725 mmHg 77%
    18:00 +28°C° 0,5 mm 2 m/s 725 mmHg 84%
    19:00 +27°C° 0,5 mm 2 m/s 725 mmHg 85%
    20:00 +26°C° 0,5 mm 2 m/s 726 mmHg 87%
    21:00 +25°C° 0,5 mm 2 m/s 726 mmHg 88%
    22:00 +25°C° 0,2 mm 2 m/s 726 mmHg 86%
    23:00 +24°C° 0,2 mm 2 m/s 726 mmHg 84%

    Amanhã, 20 Agosto, Domingo

    Tempo Temperatura Precipitação Vento Pressão Humidade
    00:00 +24°C° 0,2 mm 2 m/s 726 mmHg 81%
    01:00 +24°C° 0,1 mm 2 m/s 726 mmHg 79%
    02:00 +24°C° 0,1 mm 2 m/s 726 mmHg 78%
    03:00 +24°C° 0,1 mm 2 m/s 725 mmHg 76%
    04:00 +24°C° 0 mm 2 m/s 725 mmHg 75%
    05:00 +24°C° 0 mm 1 m/s 725 mmHg 75%
    06:00 +24°C° 0 mm 1 m/s 725 mmHg 74%
    07:00 +27°C° 0 mm 1 m/s 726 mmHg 67%
    08:00 +29°C° 0 mm 1 m/s 726 mmHg 60%
    09:00 +31°C° 0 mm 1 m/s 726 mmHg 54%
    10:00 +32°C° 0 mm 2 m/s 726 mmHg 53%
    11:00 +34°C° 0 mm 2 m/s 726 mmHg 52%
    12:00 +35°C° 0 mm 3 m/s 726 mmHg 51%
    13:00 +35°C° 0,5 mm 3 m/s 725 mmHg 56%
    14:00 +34°C° 0,5 mm 3 m/s 724 mmHg 61%
    15:00 +33°C° 0,5 mm 3 m/s 724 mmHg 66%
    16:00 +31°C° 1,3 mm 2 m/s 724 mmHg 73%
    17:00 +30°C° 1,3 mm 2 m/s 724 mmHg 79%
    18:00 +28°C° 1,3 mm 2 m/s 724 mmHg 86%
    19:00 +27°C° 0,1 mm 2 m/s 725 mmHg 87%
    20:00 +26°C° 0,1 mm 1 m/s 725 mmHg 88%
    21:00 +25°C° 0,1 mm 1 m/s 726 mmHg 89%
    22:00 +25°C° 0,3 mm 1 m/s 726 mmHg 86%
    23:00 +25°C° 0,3 mm 1 m/s 726 mmHg 83%

    Depois de amanhã, 21 Agosto, Segunda-feira

    Tempo Temperatura Precipitação Vento Pressão Humidade
    00:00 +25°C° 0,3 mm 1 m/s 726 mmHg 80%
    01:00 +25°C° 0 mm 1 m/s 726 mmHg 79%
    02:00 +25°C° 0 mm 1 m/s 725 mmHg 77%
    03:00 +25°C° 0 mm 1 m/s 725 mmHg 76%
    04:00 +25°C° 0,1 mm 1 m/s 725 mmHg 76%
    05:00 +25°C° 0,1 mm 1 m/s 725 mmHg 75%
    06:00 +25°C° 0,1 mm 1 m/s 725 mmHg 75%
    07:00 +27°C° 0,1 mm 2 m/s 726 mmHg 70%
    08:00 +29°C° 0,1 mm 2 m/s 726 mmHg 65%
    09:00 +31°C° 0,1 mm 2 m/s 727 mmHg 61%
    10:00 +32°C° 0,1 mm 2 m/s 727 mmHg 60%
    11:00 +32°C° 0,1 mm 2 m/s 726 mmHg 59%
    12:00 +34°C° 0,1 mm 3 m/s 726 mmHg 59%
    13:00 +33°C° 0,5 mm 3 m/s 725 mmHg 62%
    14:00 +33°C° 0,5 mm 3 m/s 725 mmHg 66%
    15:00 +33°C° 0,5 mm 3 m/s 724 mmHg 69%
    16:00 +30°C° 1,1 mm 2 m/s 724 mmHg 74%
    17:00 +29°C° 1,1 mm 2 m/s 725 mmHg 80%
    18:00 +28°C° 1,1 mm 1 m/s 725 mmHg 85%
    19:00 +27°C° 1 mm 1 m/s 726 mmHg 86%
    20:00 +26°C° 1 mm 1 m/s 726 mmHg 88%
    21:00 +26°C° 1 mm 1 m/s 727 mmHg 89%
    22:00 +25°C° 0,3 mm 1 m/s 727 mmHg 89%
    23:00 +25°C° 0,3 mm 1 m/s 727 mmHg 88%

    22 Agosto, Terça-feira

    Tempo Temperatura Precipitação Vento Pressão Humidade
    00:00 +25°C° 0,3 mm 1 m/s 727 mmHg 88%
    01:00 +25°C° 0,7 mm 1 m/s 726 mmHg 87%
    02:00 +24°C° 0,7 mm 1 m/s 726 mmHg 86%
    03:00 +24°C° 0,7 mm 1 m/s 725 mmHg 85%
    04:00 +24°C° 0,7 mm 1 m/s 726 mmHg 85%
    05:00 +24°C° 0,7 mm 1 m/s 726 mmHg 85%
    06:00 +24°C° 0,7 mm 1 m/s 726 mmHg 85%
    07:00 +25°C° 0,6 mm 1 m/s 726 mmHg 83%
    08:00 +26°C° 0,6 mm 1 m/s 727 mmHg 80%
    09:00 +28°C° 0,6 mm 1 m/s 727 mmHg 78%
    10:00 +28°C° 0,9 mm 1 m/s 727 mmHg 75%
    11:00 +29°C° 0,9 mm 1 m/s 727 mmHg 72%
    12:00 +30°C° 0,9 mm 1 m/s 727 mmHg 70%
    13:00 +30°C° 0,9 mm 2 m/s 726 mmHg 71%
    14:00 +30°C° 0,9 mm 2 m/s 726 mmHg 73%
    15:00 +30°C° 0,9 mm 2 m/s 725 mmHg 74%
    16:00 +29°C° 0,7 mm 1 m/s 725 mmHg 79%
    17:00 +28°C° 0,7 mm 1 m/s 725 mmHg 83%
    18:00 +25°C° 0,7 mm 0 m/s 726 mmHg 88%
    19:00 +27°C° 0,1 mm 1 m/s 726 mmHg 88%
    20:00 +26°C° 0,1 mm 1 m/s 726 mmHg 88%
    21:00 +25°C° 0,1 mm 1 m/s 727 mmHg 87%
    22:00 +25°C° 0 mm 1 m/s 727 mmHg 85%
    23:00 +25°C° 0 mm 1 m/s 727 mmHg 83%

    23 Agosto, Quarta-feira

    Tempo Temperatura Precipitação Vento Pressão Humidade
    00:00 +25°C° 0 mm 1 m/s 727 mmHg 81%
    01:00 +25°C° 0 mm 1 m/s 726 mmHg 80%
    02:00 +25°C° 0 mm 1 m/s 726 mmHg 78%
    03:00 +24°C° 0 mm 1 m/s 725 mmHg 77%
    04:00 +24°C° 0 mm 1 m/s 725 mmHg 76%
    05:00 +24°C° 0 mm 1 m/s 725 mmHg 75%
    06:00 +24°C° 0 mm 1 m/s 726 mmHg 75%
    07:00 +26°C° 0 mm 1 m/s 726 mmHg 70%
    08:00 +28°C° 0 mm 1 m/s 726 mmHg 65%
    09:00 +30°C° 0 mm 1 m/s 727 mmHg 60%
    10:00 +31°C° 0,1 mm 2 m/s 726 mmHg 57%
    11:00 +32°C° 0,1 mm 2 m/s 726 mmHg 55%
    12:00 +34°C° 0,1 mm 2 m/s 726 mmHg 52%
    13:00 +32°C° 0,6 mm 2 m/s 725 mmHg 55%
    14:00 +32°C° 0,6 mm 2 m/s 724 mmHg 58%
    15:00 +32°C° 0,6 mm 2 m/s 724 mmHg 61%
    16:00 +31°C° 0,3 mm 2 m/s 724 mmHg 69%
    17:00 +29°C° 0,3 mm 1 m/s 724 mmHg 78%
    18:00 +28°C° 0,3 mm 1 m/s 724 mmHg 86%
    19:00 +27°C° 0,1 mm 1 m/s 724 mmHg 87%
    20:00 +27°C° 0,1 mm 1 m/s 725 mmHg 89%
    21:00 +26°C° 0,1 mm 1 m/s 725 mmHg 90%
    22:00 +26°C° 0,1 mm 1 m/s 725 mmHg 89%
    23:00 +26°C° 0,1 mm 1 m/s 725 mmHg 89%

    24 Agosto, Quinta-feira

    Tempo Temperatura Precipitação Vento Pressão Humidade
    00:00 +26°C° 0,1 mm 1 m/s 725 mmHg 88%
    01:00 +25°C° 0 mm 1 m/s 724 mmHg 87%
    02:00 +25°C° 0 mm 1 m/s 724 mmHg 87%
    03:00 +25°C° 0 mm 1 m/s 724 mmHg 86%
    04:00 +25°C° 0 mm 1 m/s 724 mmHg 85%
    05:00 +25°C° 0 mm 1 m/s 724 mmHg 85%
    06:00 +25°C° 0 mm 1 m/s 724 mmHg 84%
    07:00 +27°C° 0,1 mm 1 m/s 724 mmHg 78%
    08:00 +28°C° 0,1 mm 1 m/s 725 mmHg 71%
    09:00 +30°C° 0,1 mm 1 m/s 725 mmHg 65%
    10:00 +31°C° 0 mm 1 m/s 725 mmHg 61%
    11:00 +32°C° 0 mm 1 m/s 724 mmHg 56%
    12:00 +34°C° 0 mm 2 m/s 724 mmHg 52%
    13:00 +34°C° 0,1 mm 2 m/s 724 mmHg 56%
    14:00 +34°C° 0,1 mm 2 m/s 723 mmHg 60%
    15:00 +32°C° 0,1 mm 2 m/s 722 mmHg 63%
    16:00 +31°C° 0,3 mm 2 m/s 723 mmHg 71%
    17:00 +29°C° 0,3 mm 1 m/s 723 mmHg 79%
    18:00 +28°C° 0,3 mm 1 m/s 723 mmHg 86%
    19:00 +27°C° 0,2 mm 1 m/s 724 mmHg 89%
    20:00 +27°C° 0,2 mm 1 m/s 724 mmHg 91%
    21:00 +26°C° 0,2 mm 1 m/s 725 mmHg 94%
    22:00 +26°C° 0,3 mm 1 m/s 725 mmHg 93%
    23:00 +26°C° 0,3 mm 1 m/s 724 mmHg 92%
    Mostrar mais